• In Lithuania
  • List of Countries
  • For 7 days
  • Water Temperature
  • Satellite Maps
  • Weather Map
  • Weather Widgets
  • user-avatar
    Login

    Hourly Weather Parakou

    Today, 19 June, Tuesday

    Time Temperature Precipitation Wind Pressure Humidity
    00:00 +25°C° 0 mm 4 mps 729 mmHg 90%
    01:00 +25°C° 0 mm 4 mps 729 mmHg 90%
    02:00 +25°C° 0 mm 4 mps 729 mmHg 90%
    03:00 +25°C° 0 mm 4 mps 729 mmHg 90%
    04:00 +25°C° 0.1 mm 4 mps 728 mmHg 90%
    05:00 +25°C° 0.1 mm 4 mps 728 mmHg 89%
    06:00 +25°C° 0.1 mm 4 mps 728 mmHg 89%
    07:00 +25°C° 0.1 mm 4 mps 729 mmHg 86%
    08:00 +26°C° 0.1 mm 4 mps 729 mmHg 83%
    09:00 +26°C° 0.1 mm 4 mps 729 mmHg 80%
    10:00 +27°C° 0.1 mm 4 mps 729 mmHg 76%
    11:00 +28°C° 0.1 mm 4 mps 729 mmHg 73%
    12:00 +28°C° 0.1 mm 3 mps 729 mmHg 70%
    13:00 +30°C° 0.1 mm 3 mps 728 mmHg 65%
    14:00 +31°C° 0.1 mm 3 mps 728 mmHg 60%
    15:00 +33°C° 0.1 mm 3 mps 727 mmHg 55%
    16:00 +31°C° 0 mm 2 mps 727 mmHg 57%
    17:00 +30°C° 0 mm 2 mps 727 mmHg 59%
    18:00 +30°C° 0 mm 1 mps 727 mmHg 62%
    19:00 +29°C° 0 mm 2 mps 727 mmHg 65%
    20:00 +28°C° 0 mm 2 mps 728 mmHg 69%
    21:00 +27°C° 0 mm 2 mps 729 mmHg 73%
    22:00 +27°C° 0 mm 3 mps 729 mmHg 76%
    23:00 +26°C° 0 mm 3 mps 729 mmHg 80%

    Tomorrow, 20 June, Wednesday

    Time Temperature Precipitation Wind Pressure Humidity
    00:00 +25°C° 0 mm 3 mps 729 mmHg 83%
    01:00 +25°C° 0.1 mm 4 mps 729 mmHg 85%
    02:00 +25°C° 0.1 mm 4 mps 728 mmHg 86%
    03:00 +25°C° 0.1 mm 4 mps 728 mmHg 87%
    04:00 +25°C° 0 mm 4 mps 728 mmHg 87%
    05:00 +25°C° 0 mm 4 mps 728 mmHg 86%
    06:00 +25°C° 0 mm 4 mps 728 mmHg 85%
    07:00 +26°C° 0 mm 4 mps 729 mmHg 80%
    08:00 +27°C° 0 mm 4 mps 729 mmHg 75%
    09:00 +28°C° 0 mm 5 mps 729 mmHg 69%
    10:00 +30°C° 0 mm 4 mps 729 mmHg 65%
    11:00 +31°C° 0 mm 3 mps 729 mmHg 60%
    12:00 +33°C° 0 mm 3 mps 729 mmHg 55%
    13:00 +33°C° 0.6 mm 3 mps 729 mmHg 56%
    14:00 +33°C° 0.6 mm 3 mps 728 mmHg 56%
    15:00 +33°C° 0.6 mm 3 mps 727 mmHg 57%
    16:00 +31°C° 0 mm 3 mps 727 mmHg 59%
    17:00 +31°C° 0 mm 3 mps 727 mmHg 61%
    18:00 +30°C° 0 mm 3 mps 727 mmHg 62%
    19:00 +29°C° 0 mm 3 mps 728 mmHg 68%
    20:00 +28°C° 0 mm 4 mps 729 mmHg 73%
    21:00 +27°C° 0 mm 4 mps 729 mmHg 78%
    22:00 +26°C° 0.4 mm 4 mps 729 mmHg 82%
    23:00 +25°C° 0.4 mm 4 mps 729 mmHg 87%

    Day after tomorrow, 21 June, Thursday

    Time Temperature Precipitation Wind Pressure Humidity
    00:00 +25°C° 0.4 mm 4 mps 729 mmHg 92%
    01:00 +25°C° 0.1 mm 4 mps 729 mmHg 92%
    02:00 +25°C° 0.1 mm 3 mps 729 mmHg 92%
    03:00 +24°C° 0.1 mm 3 mps 728 mmHg 92%
    04:00 +24°C° 0.5 mm 3 mps 728 mmHg 93%
    05:00 +24°C° 0.5 mm 3 mps 729 mmHg 94%
    06:00 +24°C° 0.5 mm 3 mps 729 mmHg 94%
    07:00 +23°C° 0.2 mm 4 mps 729 mmHg 92%
    08:00 +25°C° 0.2 mm 4 mps 729 mmHg 89%
    09:00 +26°C° 0.2 mm 4 mps 729 mmHg 87%
    10:00 +25°C° 8.2 mm 4 mps 729 mmHg 89%
    11:00 +25°C° 8.2 mm 4 mps 729 mmHg 91%
    12:00 +25°C° 8.2 mm 3 mps 729 mmHg 93%
    13:00 +25°C° 3.1 mm 3 mps 729 mmHg 89%
    14:00 +26°C° 3.1 mm 3 mps 728 mmHg 86%
    15:00 +27°C° 3.1 mm 3 mps 728 mmHg 83%
    16:00 +26°C° 0.5 mm 2 mps 728 mmHg 86%
    17:00 +26°C° 0.5 mm 2 mps 728 mmHg 88%
    18:00 +25°C° 0.5 mm 2 mps 729 mmHg 90%
    19:00 +25°C° 0 mm 2 mps 729 mmHg 92%
    20:00 +24°C° 0 mm 2 mps 729 mmHg 93%
    21:00 +24°C° 0 mm 2 mps 730 mmHg 95%
    22:00 +24°C° 0 mm 2 mps 729 mmHg 95%
    23:00 +23°C° 0 mm 2 mps 729 mmHg 96%

    22 June, Friday

    Time Temperature Precipitation Wind Pressure Humidity
    00:00 +23°C° 0 mm 2 mps 729 mmHg 96%
    01:00 +23°C° 0 mm 2 mps 729 mmHg 95%
    02:00 +24°C° 0 mm 2 mps 729 mmHg 94%
    03:00 +24°C° 0 mm 2 mps 728 mmHg 94%
    04:00 +24°C° 0 mm 2 mps 729 mmHg 94%
    05:00 +24°C° 0 mm 2 mps 729 mmHg 94%
    06:00 +24°C° 0 mm 2 mps 729 mmHg 94%
    07:00 +24°C° 0.1 mm 2 mps 729 mmHg 91%
    08:00 +25°C° 0.1 mm 3 mps 730 mmHg 87%
    09:00 +26°C° 0.1 mm 3 mps 730 mmHg 84%
    10:00 +27°C° 0.3 mm 3 mps 730 mmHg 77%
    11:00 +29°C° 0.3 mm 3 mps 729 mmHg 71%
    12:00 +30°C° 0.3 mm 3 mps 729 mmHg 65%
    13:00 +30°C° 1 mm 3 mps 728 mmHg 68%
    14:00 +29°C° 1 mm 3 mps 728 mmHg 72%
    15:00 +29°C° 1 mm 3 mps 727 mmHg 75%
    16:00 +27°C° 1.6 mm 3 mps 727 mmHg 81%
    17:00 +26°C° 1.6 mm 2 mps 728 mmHg 86%
    18:00 +25°C° 1.6 mm 2 mps 728 mmHg 92%
    19:00 +25°C° 0.8 mm 2 mps 729 mmHg 93%
    20:00 +25°C° 0.8 mm 2 mps 729 mmHg 93%
    21:00 +24°C° 0.8 mm 3 mps 730 mmHg 94%
    22:00 +24°C° 0 mm 3 mps 730 mmHg 95%
    23:00 +24°C° 0 mm 2 mps 730 mmHg 95%

    23 June, Saturday

    Time Temperature Precipitation Wind Pressure Humidity
    00:00 +24°C° 0 mm 2 mps 730 mmHg 96%
    01:00 +24°C° 0.1 mm 2 mps 729 mmHg 96%
    02:00 +24°C° 0.1 mm 2 mps 729 mmHg 96%
    03:00 +24°C° 0.1 mm 2 mps 729 mmHg 95%
    04:00 +23°C° 0.1 mm 2 mps 729 mmHg 95%
    05:00 +23°C° 0.1 mm 2 mps 729 mmHg 95%
    06:00 +23°C° 0.1 mm 2 mps 730 mmHg 95%
    07:00 +24°C° 0.1 mm 2 mps 730 mmHg 91%
    08:00 +25°C° 0.1 mm 2 mps 731 mmHg 87%
    09:00 +26°C° 0.1 mm 3 mps 731 mmHg 83%
    10:00 +28°C° 0.1 mm 2 mps 731 mmHg 76%
    11:00 +29°C° 0.1 mm 2 mps 730 mmHg 69%
    12:00 +31°C° 0.1 mm 2 mps 730 mmHg 62%
    13:00 +31°C° 0.1 mm 2 mps 729 mmHg 60%
    14:00 +31°C° 0.1 mm 2 mps 728 mmHg 59%
    15:00 +32°C° 0.1 mm 1 mps 728 mmHg 57%
    16:00 +30°C° 0.6 mm 1 mps 728 mmHg 65%
    17:00 +29°C° 0.6 mm 1 mps 728 mmHg 74%
    18:00 +27°C° 0.6 mm 1 mps 728 mmHg 82%
    19:00 +26°C° 0.6 mm 1 mps 729 mmHg 85%
    20:00 +26°C° 0.6 mm 2 mps 729 mmHg 88%
    21:00 +25°C° 0.6 mm 2 mps 730 mmHg 91%
    22:00 +25°C° 0 mm 2 mps 730 mmHg 93%
    23:00 +25°C° 0 mm 1 mps 729 mmHg 94%

    24 June, Sunday

    Time Temperature Precipitation Wind Pressure Humidity
    00:00 +24°C° 0 mm 1 mps 729 mmHg 95%
    01:00 +24°C° 0 mm 1 mps 729 mmHg 95%
    02:00 +24°C° 0 mm 1 mps 729 mmHg 96%
    03:00 +24°C° 0 mm 2 mps 728 mmHg 96%
    04:00 +24°C° 0 mm 2 mps 728 mmHg 97%
    05:00 +24°C° 0 mm 2 mps 729 mmHg 97%
    06:00 +24°C° 0 mm 2 mps 729 mmHg 97%
    07:00 +25°C° 0 mm 2 mps 729 mmHg 91%
    08:00 +26°C° 0 mm 2 mps 730 mmHg 85%
    09:00 +28°C° 0 mm 2 mps 730 mmHg 78%
    10:00 +29°C° 0.4 mm 2 mps 730 mmHg 72%
    11:00 +30°C° 0.4 mm 2 mps 729 mmHg 65%
    12:00 +32°C° 0.4 mm 2 mps 729 mmHg 59%
    13:00 +31°C° 2.6 mm 2 mps 728 mmHg 65%
    14:00 +30°C° 2.6 mm 1 mps 727 mmHg 71%
    15:00 +29°C° 2.6 mm 1 mps 727 mmHg 77%
    16:00 +28°C° 1 mm 1 mps 727 mmHg 80%
    17:00 +27°C° 1 mm 1 mps 727 mmHg 84%
    18:00 +26°C° 1 mm 1 mps 728 mmHg 87%
    19:00 +26°C° 0 mm 1 mps 728 mmHg 88%
    20:00 +25°C° 0 mm 1 mps 728 mmHg 90%
    21:00 +25°C° 0 mm 1 mps 728 mmHg 91%
    22:00 +24°C° 0 mm 1 mps 728 mmHg 92%
    23:00 +24°C° 0 mm 1 mps 728 mmHg 93%
    Show more